This demonstration page uses our WeatherBlox Daily Observations layout. Learn more.

Left ArrowRight Arrow

Hourly Observations for September 8, 2022

Temp ( °F °C ) Dew Point ( °F °C ) Humidity (%) Winds ( mph kmh ) Pressure ( in mb ) Visibility ( mi km ) Precip ( " mm )
12:15 am 00:15 Cloudy 68 20 68 20 100 100 ENE 6 9 29.96 1015 10 16 0.00 0.00
12:35 am 00:35 Cloudy 68 20 68 20 100 100 ENE 5 7 29.96 1015 10 16 0.00 0.00
12:55 am 00:55 Cloudy 68 20 68 20 100 100 NE 5 7 29.96 1015 10 16 0.00 0.00
1:15 am 01:15 Cloudy 68 20 68 20 100 100 NE 3 6 29.96 1015 10 16 0.00 0.00
1:35 am 01:35 Cloudy 68 20 68 20 100 100 ENE 5 7 29.96 1015 10 16 0.00 0.00
1:55 am 01:55 Cloudy 68 20 66 19 94 94 NE 3 6 29.96 1015 10 16 0.00 0.00
2:15 am 02:15 Cloudy 68 20 66 19 94 94 NE 3 6 29.96 1015 10 16 0.00 0.00
2:35 am 02:35 Cloudy 68 20 66 19 94 94 Calm 29.96 1015 10 16 0.00 0.00
2:55 am 02:55 Cloudy 68 20 66 19 94 94 NE 3 6 29.95 1014 10 16 0.00 0.00
3:15 am 03:15 Cloudy 68 20 66 19 94 94 NE 3 6 29.95 1014 10 16 0.00 0.00
3:35 am 03:35 Cloudy 68 20 66 19 94 94 Calm 29.95 1014 10 16 0.00 0.00
3:55 am 03:55 Cloudy 68 20 68 20 100 100 Calm 29.95 1014 10 16 0.00 0.00
4:15 am 04:15 Cloudy 68 20 68 20 100 100 NNE 3 6 29.95 1014 10 16 0.00 0.00
4:35 am 04:35 Cloudy 68 20 68 20 100 100 NNE 3 6 29.95 1014 10 16 0.00 0.00
4:55 am 04:55 Cloudy 68 20 68 20 100 100 NE 3 6 29.94 1014 10 16 0.00 0.00
5:15 am 05:15 Cloudy 68 20 68 20 100 100 NE 3 6 29.94 1014 10 16 0.00 0.00
5:35 am 05:35 Cloudy 68 20 68 20 100 100 Calm 29.94 1014 10 16 0.00 0.00
5:55 am 05:55 Cloudy 68 20 68 20 100 100 NNE 3 6 29.94 1014 10 16 0.00 0.00
6:15 am 06:15 Cloudy 68 20 68 20 100 100 NNE 5 7 29.95 1014 7 11 0.00 0.00
6:35 am 06:35 Cloudy 68 20 68 20 100 100 NNE 5 7 29.95 1014 10 16 0.00 0.00
6:55 am 06:55 Cloudy 68 20 66 19 94 94 NNE 3 6 29.95 1014 7 11 0.00 0.00
7:15 am 07:15 Cloudy 68 20 68 20 100 100 N 5 7 29.95 1014 5 8 0.00 0.00
7:35 am 07:35 Cloudy 68 20 66 19 94 94 NNE 3 6 29.96 1015 5 8 0.00 0.00
7:55 am 07:55 Mostly Cloudy 68 20 66 19 94 94 NNE 5 7 29.96 1015 7 11 0.00 0.00
8:15 am 08:15 Partly Cloudy 68 20 66 19 94 94 NNE 8 13 29.96 1015 5 8 0.00 0.00
8:35 am 08:35 Partly Cloudy 68 20 66 19 94 94 NNE 6 9 29.96 1015 7 11 0.00 0.00
8:55 am 08:55 Mostly Cloudy 68 20 66 19 94 94 NNE 6 9 29.96 1015 7 11 0.00 0.00
9:15 am 09:15 Cloudy 70 21 66 19 88 88 NNE 7 11 29.96 1015 10 16 0.00 0.00
9:35 am 09:35 Cloudy 70 21 66 19 88 88 NNE 7 11 29.96 1015 10 16 0.00 0.00
9:55 am 09:55 Cloudy 70 21 66 19 88 88 NNE 7 11 29.96 1015 10 16 0.00 0.00
10:15 am 10:15 Cloudy 72 22 66 19 83 83 NNE 7 11 29.96 1015 10 16 0.00 0.00
10:35 am 10:35 Cloudy 72 22 66 19 83 83 NE 7 11 29.96 1015 10 16 0.00 0.00
10:55 am 10:55 Cloudy 72 22 66 19 83 83 N 6 9 29.96 1015 10 16 0.00 0.00
11:15 am 11:15 Cloudy 72 22 66 19 83 83 NNE 6 9 29.96 1015 10 16 0.00 0.00
11:35 am 11:35 Cloudy 73 23 68 20 83 83 NE 7 11 29.96 1014 10 16 0.00 0.00
11:55 am 11:55 Cloudy 73 23 64 18 73 73 NE 9 15 29.96 1014 10 16 0.00 0.00
12:15 pm 12:15 Cloudy 73 23 64 18 73 73 NNE 10 17 29.95 1014 10 16 0.00 0.00
12:35 pm 12:35 Cloudy 73 23 64 18 73 73 NNE 6 9 29.95 1014 10 16 0.00 0.00
12:55 pm 12:55 Cloudy 73 23 63 17 69 69 NE 6 9 29.95 1014 10 16 0.00 0.00
1:15 pm 13:15 Cloudy 73 23 63 17 69 69 NNE 10 17 29.95 1014 10 16 0.00 0.00
1:35 pm 13:35 Cloudy 75 24 63 17 65 65 NE 9 15 29.94 1014 10 16 0.00 0.00
1:55 pm 13:55 Cloudy 77 25 64 18 65 65 N 7 11 29.93 1014 10 16 0.00 0.00
2:15 pm 14:15 Cloudy 77 25 63 17 61 61 NE 9 15 29.93 1014 10 16 0.00 0.00
2:35 pm 14:35 Cloudy 77 25 63 17 61 61 NE 9 15 29.93 1014 10 16 0.00 0.00
2:55 pm 14:55 Cloudy 77 25 63 17 61 61 NE 7 11 29.93 1013 10 16 0.00 0.00
3:15 pm 15:15 Cloudy 77 25 63 17 61 61 NE 5 7 29.93 1013 10 16 0.00 0.00
3:35 pm 15:35 Mostly Cloudy 77 25 63 17 61 61 NNE 6 9 29.91 1013 10 16 0.00 0.00
3:55 pm 15:55 Mostly Cloudy 79 26 63 17 58 58 NNE 7 11 29.90 1013 10 16 0.00 0.00
4:15 pm 16:15 Cloudy 79 26 61 16 54 54 ENE 7 11 29.90 1013 10 16 0.00 0.00
4:35 pm 16:35 Partly Cloudy 77 25 63 17 61 61 NNE 6 9 29.90 1013 10 16 0.00 0.00
4:55 pm 16:55 Partly Cloudy 79 26 64 18 61 61 N 5 7 29.89 1012 10 16 0.00 0.00
5:15 pm 17:15 Cloudy 79 26 63 17 58 58 N 5 7 29.89 1012 10 16 0.00 0.00
5:35 pm 17:35 Cloudy 77 25 63 17 61 61 NE 7 11 29.90 1012 10 16 0.00 0.00
5:55 pm 17:55 Cloudy 77 25 63 17 61 61 NNE 7 11 29.90 1012 10 16 0.00 0.00
6:15 pm 18:15 Cloudy 77 25 63 17 61 61 ENE 6 9 29.90 1012 10 16 0.00 0.00
6:35 pm 18:35 Cloudy 77 25 63 17 61 61 NE 3 6 29.90 1012 10 16 0.00 0.00
6:55 pm 18:55 Mostly Cloudy 77 25 63 17 61 61 NE 3 6 29.90 1012 10 16 0.00 0.00
7:15 pm 19:15 Mostly Cloudy 75 24 64 18 69 69 Calm 29.90 1012 10 16 0.00 0.00
7:35 pm 19:35 Partly Cloudy 73 23 64 18 73 73 Calm 29.90 1012 10 16 0.00 0.00
7:55 pm 19:55 Clear 72 22 64 18 78 78 Calm 29.90 1013 10 16 0.00 0.00
8:15 pm 20:15 Clear 70 21 64 18 83 83 Calm 29.90 1013 10 16 0.00 0.00
8:35 pm 20:35 Clear 70 21 64 18 83 83 Calm 29.91 1013 10 16 0.00 0.00
8:55 pm 20:55 Clear 70 21 64 18 83 83 Calm 29.92 1013 10 16 0.00 0.00
9:15 pm 21:15 Clear 68 20 64 18 88 88 Calm 29.93 1014 10 16 0.00 0.00
9:35 pm 21:35 Clear 68 20 64 18 88 88 Calm 29.94 1014 10 16 0.00 0.00
9:55 pm 21:55 Clear 68 20 64 18 88 88 Calm 29.94 1014 10 16 0.00 0.00
10:15 pm 22:15 Clear 66 19 64 18 94 94 Calm 29.94 1014 10 16 0.00 0.00
10:35 pm 22:35 undefined 64 18 64 18 100 100 Calm 29.94 1014 N/A 0.00 0.00
10:55 pm 22:55 undefined 64 18 64 18 100 100 Calm 29.94 1014 N/A 0.00 0.00
11:15 pm 23:15 undefined 64 18 64 18 100 100 Calm 29.95 1014 N/A 0.00 0.00

Powered by AerisWeather